| time (UTC) | temp C | wind direction | speed KPH | gust KPH | rain 1hr cm | rain 24hr cm | rain mn cm | humidity % | barometer mb |
| 20260507232614 | 12 | 269 | 4.8 | 14.5 | 0.00 | 0.00 | 0.00 | 46 | 1005.4 |
| 20260507232113 | 12 | 333 | 6.4 | 14.5 | 0.00 | 0.00 | 0.00 | 42 | 1005.4 |
| 20260507231612 | 12 | 306 | 4.8 | 11.3 | 0.00 | 0.00 | 0.00 | 45 | 1005.4 |
| 20260507231110 | 13 | 287 | 4.8 | 17.7 | 0.00 | 0.00 | 0.00 | 44 | 1005.3 |
| 20260507230609 | 13 | 314 | 9.7 | 17.7 | 0.00 | 0.00 | 0.00 | 41 | 1005.3 |
| 20260507230037 | 13 | 284 | 6.4 | 22.5 | 0.00 | 0.00 | 0.00 | 43 | 1005.4 |
| 20260507225536 | 13 | 288 | 12.9 | 27.4 | 0.00 | 0.00 | 0.00 | 41 | 1005.0 |
| 20260507224933 | 14 | 271 | 14.5 | 27.4 | 0.00 | 0.00 | 0.00 | 38 | 1005.0 |
| 20260507224401 | 15 | 302 | 8.0 | 25.7 | 0.00 | 0.00 | 0.00 | 40 | 1005.0 |
| 20260507223900 | 15 | 318 | 9.7 | 25.7 | 0.00 | 0.00 | 0.00 | 39 | 1005.0 |
| 20260507223359 | 16 | 312 | 6.4 | 14.5 | 0.00 | 0.00 | 0.00 | 39 | 1005.0 |
| 20260507222858 | 16 | 333 | 6.4 | 17.7 | 0.00 | 0.00 | 0.00 | 38 | 1005.0 |
| 20260507222358 | 16 | 352 | 6.4 | 17.7 | 0.00 | 0.00 | 0.00 | 39 | 1004.7 |
| 20260507221857 | 16 | 359 | 3.2 | 14.5 | 0.00 | 0.00 | 0.00 | 36 | 1004.7 |
| 20260507221355 | 16 | 321 | 8.0 | 20.9 | 0.00 | 0.00 | 0.00 | 35 | 1004.7 |
| 20260507220823 | 16 | 297 | 11.3 | 29.0 | 0.00 | 0.00 | 0.00 | 36 | 1004.7 |
| 20260507220322 | 16 | 291 | 16.1 | 29.0 | 0.00 | 0.00 | 0.00 | 35 | 1004.7 |
| 20260507215821 | 16 | 309 | 11.3 | 22.5 | 0.00 | 0.00 | 0.00 | 36 | 1004.7 |
| 20260507215249 | 16 | 297 | 9.7 | 24.1 | 0.00 | 0.00 | 0.00 | 36 | 1004.7 |
| 20260507214749 | 16 | 315 | 12.9 | 24.1 | 0.00 | 0.00 | 0.00 | 36 | 1004.7 |
| 20260507214248 | 17 | 347 | 11.3 | 22.5 | 0.00 | 0.00 | 0.00 | 35 | 1004.7 |
| 20260507213716 | 17 | 317 | 11.3 | 19.3 | 0.00 | 0.00 | 0.00 | 36 | 1004.7 |
| 20260507213215 | 17 | 298 | 1.6 | 20.9 | 0.00 | 0.00 | 0.00 | 40 | 1004.7 |
| 20260507212714 | 17 | 319 | 6.4 | 20.9 | 0.00 | 0.00 | 0.00 | 38 | 1004.7 |
| 20260507212213 | 17 | 301 | 14.5 | 20.9 | 0.00 | 0.00 | 0.00 | 35 | 1004.7 |
| 20260507211712 | 17 | 311 | 6.4 | 17.7 | 0.00 | 0.00 | 0.00 | 36 | 1004.7 |
| 20260507211140 | 17 | 303 | 8.0 | 24.1 | 0.00 | 0.00 | 0.00 | 36 | 1004.7 |
| 20260507210608 | 17 | 308 | 9.7 | 24.1 | 0.00 | 0.00 | 0.00 | 35 | 1004.7 |
| 20260507210107 | 17 | 290 | 8.0 | 20.9 | 0.00 | 0.00 | 0.00 | 36 | 1004.7 |
| 20260507205535 | 17 | 305 | 12.9 | 20.9 | 0.00 | 0.00 | 0.00 | 37 | 1004.7 |
| 20260507205034 | 17 | 276 | 11.3 | 20.9 | 0.00 | 0.00 | 0.00 | 35 | 1004.7 |
| 20260507204533 | 18 | 346 | 8.0 | 16.1 | 0.00 | 0.00 | 0.00 | 33 | 1004.7 |
| 20260507204001 | 17 | 344 | 8.0 | 17.7 | 0.00 | 0.00 | 0.00 | 35 | 1004.7 |
| 20260507203500 | 17 | 309 | 4.8 | 19.3 | 0.00 | 0.00 | 0.00 | 38 | 1004.7 |
| 20260507202959 | 17 | 294 | 9.7 | 20.9 | 0.00 | 0.00 | 0.00 | 37 | 1004.7 |
| 20260507202458 | 17 | 301 | 9.7 | 20.9 | 0.00 | 0.00 | 0.00 | 35 | 1004.7 |
| 20260507201957 | 17 | 286 | 8.0 | 27.4 | 0.00 | 0.00 | 0.00 | 34 | 1004.7 |
| 20260507201456 | 17 | 295 | 12.9 | 27.4 | 0.00 | 0.00 | 0.00 | 33 | 1004.7 |
| 20260507200956 | 17 | 266 | 9.7 | 20.9 | 0.00 | 0.00 | 0.00 | 35 | 1004.7 |
| 20260507200455 | 17 | 338 | 9.7 | 20.9 | 0.00 | 0.00 | 0.00 | 38 | 1004.7 |
| 20260507195954 | 17 | 257 | 11.3 | 27.4 | 0.00 | 0.00 | 0.00 | 36 | 1004.7 |
| 20260507195453 | 16 | 297 | 14.5 | 27.4 | 0.00 | 0.00 | 0.00 | 39 | 1004.7 |
| 20260507194952 | 15 | 311 | 4.8 | 20.9 | 0.00 | 0.00 | 0.00 | 41 | 1004.7 |
| 20260507194451 | 16 | 297 | 9.7 | 22.5 | 0.00 | 0.00 | 0.00 | 41 | 1004.7 |
| 20260507193950 | 16 | 310 | 12.9 | 29.0 | 0.00 | 0.00 | 0.00 | 39 | 1004.7 |
| 20260507193418 | 17 | 294 | 12.9 | 30.6 | 0.00 | 0.00 | 0.00 | 39 | 1004.7 |
| 20260507192917 | 18 | 288 | 14.5 | 30.6 | 0.00 | 0.00 | 0.00 | 35 | 1004.7 |
| 20260507192416 | 18 | 298 | 9.7 | 16.1 | 0.00 | 0.00 | 0.00 | 37 | 1004.7 |
| 20260507191844 | 18 | 345 | 9.7 | 17.7 | 0.00 | 0.00 | 0.00 | 38 | 1004.7 |
| 20260507191312 | 18 | 352 | 9.7 | 19.3 | 0.00 | 0.00 | 0.00 | 39 | 1005.1 |
| 20260507190811 | 18 | 334 | 6.4 | 22.5 | 0.00 | 0.00 | 0.00 | 38 | 1005.1 |
| 20260507190310 | 17 | 325 | 11.3 | 32.2 | 0.00 | 0.00 | 0.00 | 37 | 1005.1 |
| 20260507185810 | 17 | 303 | 16.1 | 32.2 | 0.00 | 0.00 | 0.00 | 34 | 1005.1 |
| 20260507185309 | 17 | 299 | 12.9 | 29.0 | 0.00 | 0.00 | 0.00 | 38 | 1005.1 |
| 20260507184808 | 17 | 304 | 16.1 | 29.0 | 0.00 | 0.00 | 0.00 | 42 | 1005.1 |
| 20260507184307 | 16 | 336 | 9.7 | 25.7 | 0.00 | 0.00 | 0.00 | 40 | 1005.1 |
| 20260507183804 | 17 | 318 | 8.0 | 25.7 | 0.00 | 0.00 | 0.00 | 43 | 1005.1 |
| 20260507183303 | 17 | 324 | 11.3 | 20.9 | 0.00 | 0.00 | 0.00 | 41 | 1005.1 |
| 20260507182803 | 16 | 296 | 8.0 | 22.5 | 0.00 | 0.00 | 0.00 | 43 | 1005.4 |
| 20260507182302 | 17 | 345 | 9.7 | 24.1 | 0.00 | 0.00 | 0.00 | 40 | 1005.4 |
| 20260507181801 | 17 | 309 | 12.9 | 24.1 | 0.00 | 0.00 | 0.00 | 39 | 1005.4 |
| 20260507181300 | 17 | 312 | 14.5 | 30.6 | 0.00 | 0.00 | 0.00 | 40 | 1005.4 |
| 20260507180759 | 17 | 346 | 9.7 | 30.6 | 0.00 | 0.00 | 0.00 | 42 | 1005.4 |
| 20260507180258 | 17 | 338 | 11.3 | 25.7 | 0.00 | 0.00 | 0.00 | 40 | 1005.4 |
| 20260507175757 | 17 | 296 | 16.1 | 32.2 | 0.00 | 0.00 | 0.00 | 42 | 1005.4 |
| 20260507175257 | 17 | 331 | 11.3 | 32.2 | 0.00 | 0.00 | 0.00 | 41 | 1005.4 |
| 20260507174725 | 17 | 327 | 9.7 | 25.7 | 0.00 | 0.00 | 0.00 | 39 | 1005.1 |
| 20260507174223 | 17 | 332 | 8.0 | 27.4 | 0.00 | 0.00 | 0.00 | 43 | 1005.4 |
| 20260507173722 | 17 | 311 | 11.3 | 29.0 | 0.00 | 0.00 | 0.00 | 41 | 1005.1 |
| 20260507173221 | 17 | 349 | 9.7 | 29.0 | 0.00 | 0.00 | 0.00 | 44 | 1005.1 |
| 20260507172721 | 16 | 340 | 9.7 | 19.3 | 0.00 | 0.00 | 0.00 | 45 | 1005.4 |
| 20260507172220 | 17 | 316 | 9.7 | 27.4 | 0.00 | 0.00 | 0.00 | 43 | 1005.4 |
| 20260507171719 | 17 | 325 | 14.5 | 29.0 | 0.00 | 0.00 | 0.00 | 42 | 1005.4 |
| 20260507171218 | 17 | 312 | 14.5 | 29.0 | 0.00 | 0.00 | 0.00 | 47 | 1005.4 |
| 20260507170718 | 17 | 292 | 6.4 | 27.4 | 0.00 | 0.00 | 0.00 | 47 | 1005.4 |
| 20260507170217 | 16 | 320 | 4.8 | 27.4 | 0.00 | 0.00 | 0.00 | 48 | 1005.8 |
| 20260507165716 | 16 | 305 | 12.9 | 24.1 | 0.00 | 0.00 | 0.00 | 47 | 1005.8 |
| 20260507165215 | 15 | 347 | 11.3 | 24.1 | 0.00 | 0.00 | 0.00 | 47 | 1005.7 |
| 20260507164714 | 15 | 331 | 9.7 | 27.4 | 0.00 | 0.00 | 0.00 | 52 | 1005.7 |
| 20260507164142 | 16 | 332 | 12.9 | 27.4 | 0.00 | 0.00 | 0.00 | 46 | 1005.8 |
| 20260507163641 | 16 | 317 | 9.7 | 24.1 | 0.00 | 0.00 | 0.00 | 47 | 1005.8 |
| 20260507163110 | 16 | 293 | 11.3 | 24.1 | 0.00 | 0.00 | 0.00 | 44 | 1005.8 |
| 20260507162609 | 16 | 350 | 1.6 | 22.5 | 0.00 | 0.00 | 0.00 | 50 | 1005.8 |
| 20260507162108 | 15 | 268 | 8.0 | 17.7 | 0.00 | 0.00 | 0.00 | 54 | 1005.7 |
| 20260507161536 | 14 | 293 | 8.0 | 17.7 | 0.00 | 0.00 | 0.00 | 58 | 1006.1 |
| 20260507161036 | 15 | 302 | 9.7 | 22.5 | 0.00 | 0.00 | 0.00 | 59 | 1006.1 |
| 20260507160534 | 15 | 315 | 8.0 | 22.5 | 0.00 | 0.00 | 0.00 | 56 | 1006.1 |
| 20260507160034 | 15 | 289 | 6.4 | 29.0 | 0.00 | 0.00 | 0.00 | 55 | 1006.1 |
| 20260507155533 | 15 | 274 | 17.7 | 29.0 | 0.00 | 0.00 | 0.00 | 54 | 1006.1 |
| 20260507155001 | 13 | 309 | 11.3 | 17.7 | 0.00 | 0.00 | 0.00 | 63 | 1006.4 |
| 20260507154429 | 13 | 299 | 11.3 | 20.9 | 0.00 | 0.00 | 0.00 | 62 | 1006.4 |
| 20260507153928 | 13 | 248 | 11.3 | 20.9 | 0.00 | 0.00 | 0.00 | 60 | 1006.4 |
| 20260507153427 | 14 | 279 | 8.0 | 16.1 | 0.00 | 0.00 | 0.00 | 59 | 1006.4 |
| 20260507152927 | 14 | 335 | 4.8 | 14.5 | 0.00 | 0.00 | 0.00 | 61 | 1006.8 |
| 20260507152426 | 13 | 311 | 8.0 | 19.3 | 0.00 | 0.00 | 0.00 | 62 | 1006.8 |
| 20260507151925 | 14 | 266 | 8.0 | 19.3 | 0.00 | 0.00 | 0.00 | 58 | 1006.8 |
| 20260507151424 | 15 | 337 | 8.0 | 17.7 | 0.00 | 0.00 | 0.00 | 57 | 1006.8 |
| 20260507150923 | 15 | 293 | 8.0 | 17.7 | 0.00 | 0.00 | 0.00 | 59 | 1006.8 |
| 20260507150423 | 14 | 321 | 9.7 | 16.1 | 0.00 | 0.00 | 0.00 | 63 | 1006.8 |
| 20260507145922 | 14 | 295 | 9.7 | 22.5 | 0.00 | 0.00 | 0.00 | 63 | 1006.8 |
| 20260507145421 | 15 | 284 | 6.4 | 22.5 | 0.00 | 0.00 | 0.00 | 62 | 1006.8 |
| 20260507144818 | 15 | 332 | 8.0 | 17.7 | 0.00 | 0.00 | 0.00 | 55 | 1006.8 |
| 20260507144317 | 14 | 305 | 6.4 | 17.7 | 0.00 | 0.00 | 0.00 | 59 | 1006.8 |
| 20260507143816 | 14 | 324 | 8.0 | 22.5 | 0.00 | 0.00 | 0.00 | 62 | 1006.8 |
| 20260507143315 | 13 | 295 | 9.7 | 22.5 | 0.00 | 0.00 | 0.00 | 62 | 1006.8 |
| 20260507142814 | 13 | 310 | 11.3 | 17.7 | 0.00 | 0.00 | 0.00 | 62 | 1006.5 |
| 20260507142314 | 13 | 304 | 8.0 | 22.5 | 0.00 | 0.00 | 0.00 | 63 | 1006.8 |
| 20260507141813 | 13 | 286 | 8.0 | 22.5 | 0.00 | 0.00 | 0.00 | 65 | 1006.5 |
| 20260507141312 | 13 | 320 | 8.0 | 22.5 | 0.00 | 0.00 | 0.00 | 65 | 1006.5 |
| 20260507140740 | 12 | 339 | 8.0 | 22.5 | 0.00 | 0.00 | 0.00 | 63 | 1006.8 |
| 20260507140137 | 12 | 323 | 11.3 | 22.5 | 0.00 | 0.00 | 0.00 | 70 | 1006.5 |
| 20260507135637 | 12 | 299 | 11.3 | 27.4 | 0.00 | 0.00 | 0.00 | 69 | 1006.8 |
| 20260507135136 | 12 | 303 | 14.5 | 27.4 | 0.00 | 0.00 | 0.00 | 68 | 1006.8 |
| 20260507134635 | 12 | 293 | 11.3 | 20.9 | 0.00 | 0.00 | 0.00 | 66 | 1006.5 |
| 20260507134134 | 13 | 300 | 11.3 | 17.7 | 0.00 | 0.00 | 0.00 | 64 | 1006.5 |
| 20260507133633 | 13 | 322 | 8.0 | 14.5 | 0.00 | 0.00 | 0.00 | 66 | 1006.8 |
| 20260507133132 | 12 | 359 | 4.8 | 14.5 | 0.00 | 0.00 | 0.00 | 68 | 1006.8 |
| 20260507132632 | 12 | 348 | 8.0 | 22.5 | 0.00 | 0.00 | 0.00 | 68 | 1006.8 |
| 20260507132059 | 12 | 315 | 8.0 | 22.5 | 0.00 | 0.00 | 0.00 | 64 | 1006.8 |
| 20260507131558 | 13 | 317 | 12.9 | 19.3 | 0.00 | 0.00 | 0.00 | 63 | 1006.8 |
| 20260507131058 | 13 | 339 | 6.4 | 16.1 | 0.00 | 0.00 | 0.00 | 63 | 1006.8 |
| 20260507130455 | 13 | 323 | 6.4 | 16.1 | 0.00 | 0.00 | 0.00 | 63 | 1006.8 |
| 20260507125923 | 13 | 303 | 8.0 | 16.1 | 0.00 | 0.00 | 0.00 | 64 | 1006.8 |
| 20260507125422 | 13 | 329 | 9.7 | 16.1 | 0.00 | 0.00 | 0.00 | 65 | 1006.8 |
| 20260507124921 | 12 | 339 | 4.8 | 17.7 | 0.00 | 0.00 | 0.00 | 67 | 1006.8 |
| 20260507124420 | 12 | 329 | 9.7 | 17.7 | 0.00 | 0.00 | 0.00 | 63 | 1006.8 |
| 20260507123919 | 12 | 344 | 8.0 | 17.7 | 0.00 | 0.00 | 0.00 | 65 | 1006.8 |
| 20260507123419 | 12 | 314 | 6.4 | 17.7 | 0.00 | 0.00 | 0.00 | 66 | 1006.8 |
| 20260507122918 | 12 | 323 | 8.0 | 20.9 | 0.00 | 0.00 | 0.00 | 69 | 1006.8 |
| 20260507122417 | 12 | 306 | 12.9 | 20.9 | 0.00 | 0.00 | 0.00 | 70 | 1007.1 |
| 20260507121916 | 12 | 311 | 6.4 | 20.9 | 0.00 | 0.00 | 0.00 | 68 | 1007.1 |
| 20260507121416 | 12 | 312 | 11.3 | 17.7 | 0.00 | 0.00 | 0.00 | 70 | 1007.1 |
| 20260507120915 | 11 | 336 | 3.2 | 17.7 | 0.00 | 0.00 | 0.00 | 72 | 1006.8 |
| 20260507120412 | 11 | 310 | 8.0 | 17.7 | 0.00 | 0.00 | 0.00 | 71 | 1007.1 |
| 20260507115911 | 11 | 318 | 6.4 | 17.7 | 0.00 | 0.00 | 0.00 | 72 | 1007.1 |
| 20260507115410 | 11 | 316 | 6.4 | 17.7 | 0.00 | 0.00 | 0.00 | 74 | 1006.8 |
| 20260507114910 | 11 | 342 | 9.7 | 17.7 | 0.00 | 0.00 | 0.00 | 73 | 1006.8 |
| 20260507114338 | 11 | 342 | 6.4 | 14.5 | 0.00 | 0.00 | 0.00 | 76 | 1006.8 |
| 20260507113838 | 10 | 358 | 6.4 | 14.5 | 0.00 | 0.00 | 0.00 | 77 | 1006.8 |
| 20260507113336 | 10 | 334 | 4.8 | 9.7 | 0.00 | 0.00 | 0.00 | 86 | 1006.8 |
| 20260507112835 | 9 | 7 | 4.8 | 4.8 | 0.00 | 0.00 | 0.00 | 87 | 1006.8 |
| 20260507112335 | 8 | 331 | 0.0 | 0.0 | 0.00 | 0.00 | 0.00 | 90 | 1006.7 |
| 20260507111835 | 8 | 331 | 0.0 | 0.0 | 0.00 | 0.00 | 0.00 | 95 | 1006.7 |
| 20260507111334 | 7 | 331 | 0.0 | 0.0 | 0.00 | 0.00 | 0.00 | 96 | 1006.7 |
| 20260507110833 | 7 | 331 | 0.0 | 9.7 | 0.00 | 0.00 | 0.00 | 96 | 1006.7 |
| 20260507110332 | 7 | 337 | 3.2 | 11.3 | 0.00 | 0.00 | 0.00 | 96 | 1006.4 |
| 20260507105831 | 7 | 1 | 8.0 | 11.3 | 0.00 | 0.00 | 0.00 | 95 | 1006.4 |
| 20260507105330 | 7 | 321 | 8.0 | 11.3 | 0.00 | 0.00 | 0.00 | 96 | 1006.7 |
| 20260507104830 | 7 | 359 | 6.4 | 11.3 | 0.00 | 0.00 | 0.00 | 96 | 1006.7 |
| 20260507104329 | 7 | 332 | 6.4 | 11.3 | 0.00 | 0.00 | 0.00 | 96 | 1006.7 |
| 20260507103828 | 7 | 306 | 0.0 | 8.0 | 0.00 | 0.00 | 0.00 | 97 | 1006.7 |
| 20260507103327 | 7 | 322 | 6.4 | 14.5 | 0.00 | 0.00 | 0.00 | 96 | 1006.7 |
| 20260507102826 | 7 | 314 | 8.0 | 14.5 | 0.00 | 0.00 | 0.00 | 96 | 1006.7 |
| 20260507102326 | 7 | 348 | 6.4 | 16.1 | 0.00 | 0.00 | 0.00 | 96 | 1006.4 |
| 20260507101825 | 7 | 337 | 8.0 | 16.1 | 0.00 | 0.00 | 0.00 | 96 | 1006.4 |
| 20260507101324 | 7 | 337 | 6.4 | 12.9 | 0.00 | 0.00 | 0.00 | 97 | 1006.7 |
| 20260507100752 | 7 | 330 | 8.0 | 12.9 | 0.00 | 0.00 | 0.00 | 97 | 1006.7 |
| 20260507100251 | 7 | 319 | 8.0 | 14.5 | 0.00 | 0.00 | 0.00 | 97 | 1006.4 |
| 20260507095750 | 7 | 305 | 4.8 | 17.7 | 0.00 | 0.00 | 0.00 | 97 | 1006.7 |
| 20260507095249 | 7 | 299 | 8.0 | 17.7 | 0.00 | 0.00 | 0.00 | 97 | 1006.7 |
| 20260507094717 | 7 | 291 | 8.0 | 20.9 | 0.00 | 0.00 | 0.00 | 97 | 1006.4 |
| 20260507094217 | 7 | 323 | 6.4 | 20.9 | 0.00 | 0.00 | 0.00 | 97 | 1006.7 |
| 20260507093716 | 7 | 293 | 3.2 | 12.9 | 0.00 | 0.00 | 0.00 | 97 | 1006.7 |
| 20260507093215 | 7 | 282 | 6.4 | 14.5 | 0.00 | 0.00 | 0.00 | 97 | 1006.7 |
| 20260507092643 | 7 | 290 | 4.8 | 12.9 | 0.00 | 0.00 | 0.00 | 97 | 1006.7 |
| 20260507092009 | 7 | 288 | 6.4 | 12.9 | 0.00 | 0.00 | 0.00 | 97 | 1006.7 |
| 20260507091508 | 7 | 324 | 6.4 | 11.3 | 0.00 | 0.00 | 0.00 | 98 | 1006.7 |
| 20260507091008 | 7 | 256 | 3.2 | 11.3 | 0.00 | 0.00 | 0.00 | 98 | 1006.7 |
| 20260507090507 | 7 | 265 | 8.0 | 11.3 | 0.00 | 0.00 | 0.00 | 98 | 1006.4 |
| 20260507090006 | 7 | 298 | 6.4 | 9.7 | 0.00 | 0.00 | 0.00 | 98 | 1006.1 |
| 20260507085505 | 7 | 328 | 4.8 | 9.7 | 0.00 | 0.00 | 0.00 | 97 | 1006.1 |
| 20260507085004 | 7 | 339 | 6.4 | 17.7 | 0.00 | 0.00 | 0.00 | 97 | 1006.1 |
| 20260507084432 | 7 | 302 | 11.3 | 17.7 | 0.00 | 0.00 | 0.00 | 97 | 1005.7 |
| 20260507083932 | 7 | 309 | 11.3 | 16.1 | 0.00 | 0.00 | 0.00 | 97 | 1006.1 |
| 20260507083431 | 7 | 324 | 3.2 | 16.1 | 0.00 | 0.00 | 0.00 | 97 | 1005.7 |
| 20260507082859 | 7 | 321 | 9.7 | 20.9 | 0.00 | 0.00 | 0.00 | 97 | 1005.7 |
| 20260507082358 | 7 | 313 | 9.7 | 20.9 | 0.00 | 0.00 | 0.00 | 97 | 1005.7 |
| 20260507081857 | 7 | 303 | 9.7 | 20.9 | 0.00 | 0.00 | 0.00 | 97 | 1005.7 |
| 20260507081357 | 8 | 343 | 11.3 | 20.9 | 0.00 | 0.00 | 0.00 | 97 | 1005.7 |
| 20260507080856 | 8 | 331 | 11.3 | 19.3 | 0.00 | 0.00 | 0.00 | 97 | 1006.4 |
| 20260507080355 | 8 | 278 | 1.6 | 9.7 | 0.00 | 0.00 | 0.00 | 97 | 1006.1 |
| 20260507075854 | 8 | 295 | 6.4 | 14.5 | 0.00 | 0.00 | 0.00 | 98 | 1006.1 |
| 20260507075353 | 8 | 303 | 8.0 | 14.5 | 0.00 | 0.00 | 0.00 | 98 | 1006.1 |
| 20260507074852 | 8 | 321 | 8.0 | 16.1 | 0.00 | 0.00 | 0.00 | 98 | 1005.7 |
| 20260507074320 | 8 | 309 | 8.0 | 16.1 | 0.00 | 0.00 | 0.00 | 98 | 1005.7 |
| 20260507073820 | 8 | 288 | 9.7 | 16.1 | 0.00 | 0.00 | 0.00 | 98 | 1005.4 |
| 20260507073319 | 8 | 328 | 9.7 | 16.1 | 0.00 | 0.00 | 0.00 | 98 | 1005.7 |
| 20260507072746 | 8 | 299 | 8.0 | 20.9 | 0.00 | 0.00 | 0.00 | 98 | 1006.1 |
| 20260507072245 | 8 | 311 | 8.0 | 20.9 | 0.00 | 0.00 | 0.00 | 98 | 1005.7 |
| 20260507071744 | 8 | 299 | 9.7 | 16.1 | 0.00 | 0.00 | 0.00 | 98 | 1005.4 |
| 20260507071243 | 8 | 311 | 9.7 | 17.7 | 0.00 | 0.00 | 0.00 | 99 | 1005.7 |
| 20260507070742 | 8 | 312 | 11.3 | 17.7 | 0.00 | 0.00 | 0.00 | 99 | 1005.7 |
| 20260507070242 | 8 | 291 | 6.4 | 16.1 | 0.00 | 0.00 | 0.00 | 99 | 1005.7 |
| 20260507065710 | 8 | 304 | 11.3 | 16.1 | 0.00 | 0.00 | 0.00 | 99 | 1005.7 |
| 20260507065209 | 8 | 337 | 0.0 | 12.9 | 0.00 | 0.00 | 0.00 | 99 | 1005.7 |
| 20260507064708 | 8 | 337 | 6.4 | 12.9 | 0.00 | 0.00 | 0.00 | 99 | 1005.7 |
| 20260507064207 | 8 | 311 | 4.8 | 14.5 | 0.00 | 0.00 | 0.00 | 99 | 1005.7 |
| 20260507063706 | 8 | 315 | 6.4 | 14.5 | 0.00 | 0.00 | 0.00 | 99 | 1005.7 |
| 20260507063205 | 8 | 284 | 3.2 | 12.9 | 0.00 | 0.00 | 0.00 | 99 | 1005.7 |
| 20260507062705 | 8 | 278 | 6.4 | 12.9 | 0.00 | 0.00 | 0.00 | 99 | 1005.7 |
| 20260507062204 | 8 | 288 | 6.4 | 12.9 | 0.00 | 0.00 | 0.00 | 99 | 1005.8 |
| 20260507061632 | 8 | 317 | 4.8 | 12.9 | 0.00 | 0.00 | 0.00 | 99 | 1005.8 |
| 20260507061131 | 8 | 297 | 8.0 | 16.1 | 0.00 | 0.00 | 0.00 | 99 | 1005.8 |
| 20260507060630 | 8 | 282 | 9.7 | 16.1 | 0.00 | 0.00 | 0.00 | 99 | 1005.8 |
| 20260507060129 | 8 | 268 | 4.8 | 14.5 | 0.00 | 0.00 | 0.00 | 99 | 1005.8 |
| 20260507055628 | 8 | 273 | 3.2 | 17.7 | 0.00 | 0.00 | 0.00 | 98 | 1005.8 |
| 20260507055127 | 8 | 274 | 9.7 | 17.7 | 0.00 | 0.00 | 0.00 | 99 | 1005.8 |
| 20260507054555 | 8 | 283 | 8.0 | 16.1 | 0.00 | 0.00 | 0.00 | 99 | 1005.4 |
| 20260507054054 | 8 | 285 | 9.7 | 16.1 | 0.00 | 0.00 | 0.00 | 99 | 1005.5 |
| 20260507053553 | 8 | 261 | 8.0 | 12.9 | 0.00 | 0.00 | 0.00 | 99 | 1005.5 |
| 20260507053053 | 9 | 280 | 8.0 | 12.9 | 0.00 | 0.00 | 0.00 | 98 | 1005.5 |
| 20260507052521 | 9 | 283 | 6.4 | 16.1 | 0.00 | 0.00 | 0.00 | 98 | 1005.5 |
| 20260507052020 | 9 | 300 | 6.4 | 19.3 | 0.00 | 0.00 | 0.00 | 98 | 1005.8 |
| 20260507051519 | 9 | 287 | 11.3 | 19.3 | 0.00 | 0.00 | 0.00 | 99 | 1005.5 |
| 20260507051019 | 9 | 272 | 9.7 | 14.5 | 0.00 | 0.00 | 0.00 | 99 | 1005.5 |
| 20260507050344 | 9 | 273 | 6.4 | 11.3 | 0.00 | 0.00 | 0.00 | 99 | 1005.5 |
| 20260507045843 | 10 | 335 | 0.0 | 11.3 | 0.00 | 0.00 | 0.00 | 99 | 1005.5 |
| 20260507045342 | 10 | 251 | 8.0 | 11.3 | 0.00 | 0.00 | 0.00 | 99 | 1005.5 |
| 20260507044841 | 10 | 326 | 0.0 | 6.4 | 0.00 | 0.00 | 0.00 | 99 | 1005.8 |
| 20260507044340 | 10 | 326 | 0.0 | 6.4 | 0.00 | 0.00 | 0.00 | 99 | 1005.5 |
| 20260507043839 | 10 | 320 | 0.0 | 8.0 | 0.00 | 0.00 | 0.00 | 99 | 1005.8 |
| 20260507043336 | 10 | 308 | 6.4 | 8.0 | 0.00 | 0.00 | 0.00 | 99 | 1005.5 |
| 20260507042835 | 10 | 170 | 3.2 | 8.0 | 0.00 | 0.00 | 0.00 | 99 | 1005.5 |
| 20260507042232 | 10 | 337 | 4.8 | 9.7 | 0.00 | 0.00 | 0.00 | 99 | 1005.8 |
| 20260507041731 | 10 | 307 | 3.2 | 9.7 | 0.00 | 0.00 | 0.00 | 99 | 1005.5 |
| 20260507041230 | 10 | 300 | 1.6 | 11.3 | 0.00 | 0.00 | 0.00 | 99 | 1005.5 |
| 20260507040729 | 10 | 294 | 4.8 | 11.3 | 0.00 | 0.00 | 0.00 | 99 | 1005.5 |
| 20260507040229 | 10 | 272 | 4.8 | 11.3 | 0.00 | 0.00 | 0.00 | 99 | 1005.1 |
| 20260507035728 | 11 | 299 | 4.8 | 8.0 | 0.00 | 0.00 | 0.00 | 99 | 1005.2 |
| 20260507035156 | 11 | 315 | 3.2 | 11.3 | 0.00 | 0.00 | 0.00 | 99 | 1005.2 |
| 20260507034624 | 11 | 327 | 3.2 | 11.3 | 0.00 | 0.00 | 0.00 | 99 | 1005.2 |
| 20260507034052 | 11 | 296 | 0.0 | 11.3 | 0.00 | 0.00 | 0.00 | 99 | 1005.2 |
| 20260507033520 | 11 | 199 | 3.2 | 12.9 | 0.00 | 0.00 | 0.00 | 99 | 1005.2 |
| 20260507033019 | 11 | 307 | 6.4 | 14.5 | 0.00 | 0.00 | 0.00 | 99 | 1005.2 |
| 20260507032519 | 12 | 345 | 3.2 | 14.5 | 0.00 | 0.00 | 0.00 | 99 | 1005.2 |
| 20260507031947 | 12 | 323 | 9.7 | 20.9 | 0.00 | 0.00 | 0.00 | 99 | 1005.2 |
| 20260507031446 | 12 | 316 | 11.3 | 19.3 | 0.00 | 0.00 | 0.00 | 99 | 1005.2 |
| 20260507030914 | 12 | 299 | 6.4 | 12.9 | 0.00 | 0.00 | 0.00 | 100 | 1005.1 |
| 20260507030413 | 13 | 296 | 6.4 | 12.9 | 0.00 | 0.00 | 0.00 | 100 | 1005.1 |
| 20260507025912 | 13 | 299 | 6.4 | 16.1 | 0.00 | 0.00 | 0.00 | 100 | 1005.1 |
| 20260507025412 | 13 | 283 | 6.4 | 16.1 | 0.00 | 0.00 | 0.00 | 100 | 1004.8 |
| 20260507024910 | 13 | 303 | 6.4 | 12.9 | 0.00 | 0.00 | 0.00 | 100 | 1004.8 |
| 20260507024410 | 13 | 290 | 0.0 | 19.3 | 0.00 | 0.00 | 0.00 | 100 | 1004.5 |
| 20260507023836 | 13 | 302 | 11.3 | 19.3 | 0.00 | 0.00 | 0.00 | 100 | 1004.8 |
| 20260507023304 | 13 | 318 | 6.4 | 25.7 | 0.00 | 0.00 | 0.00 | 100 | 1004.8 |
| 20260507022803 | 13 | 319 | 6.4 | 25.7 | 0.00 | 0.00 | 0.00 | 100 | 1004.8 |
| 20260507022302 | 14 | 308 | 11.3 | 19.3 | 0.00 | 0.00 | 0.00 | 100 | 1004.5 |
| 20260507021801 | 14 | 316 | 8.0 | 17.7 | 0.00 | 0.00 | 0.00 | 100 | 1004.5 |
| 20260507021300 | 15 | 287 | 4.8 | 8.0 | 0.00 | 0.00 | 0.00 | 100 | 1004.5 |
| 20260507020759 | 15 | 278 | 4.8 | 8.0 | 0.00 | 0.00 | 0.00 | 100 | 1004.1 |
| 20260507020258 | 15 | 237 | 3.2 | 11.3 | 0.00 | 0.00 | 0.00 | 100 | 1004.5 |
| 20260507015757 | 15 | 218 | 4.8 | 12.9 | 0.00 | 0.00 | 0.00 | 100 | 1004.5 |
| 20260507015255 | 15 | 243 | 6.4 | 12.9 | 0.00 | 0.00 | 0.00 | 100 | 1004.5 |
| 20260507014754 | 15 | 238 | 4.8 | 14.5 | 0.00 | 0.00 | 0.00 | 100 | 1004.5 |
| 20260507014253 | 15 | 240 | 4.8 | 14.5 | 0.00 | 0.00 | 0.00 | 100 | 1004.5 |
| 20260507013752 | 15 | 221 | 4.8 | 12.9 | 0.00 | 0.00 | 0.00 | 100 | 1004.5 |
| 20260507013252 | 15 | 209 | 4.8 | 12.9 | 0.00 | 0.00 | 0.00 | 100 | 1004.5 |
| 20260507012751 | 15 | 190 | 1.6 | 14.5 | 0.00 | 0.00 | 0.00 | 100 | 1004.5 |
| 20260507012250 | 15 | 238 | 4.8 | 14.5 | 0.00 | 0.00 | 0.00 | 100 | 1004.5 |
| 20260507011749 | 15 | 242 | 6.4 | 12.9 | 0.00 | 0.00 | 0.00 | 100 | 1004.5 |
| 20260507011248 | 15 | 222 | 4.8 | 11.3 | 0.00 | 0.00 | 0.00 | 100 | 1004.5 |
| 20260507010747 | 15 | 187 | 6.4 | 16.1 | 0.00 | 0.00 | 0.00 | 100 | 1004.5 |
| 20260507010247 | 15 | 234 | 4.8 | 16.1 | 0.00 | 0.00 | 0.00 | 100 | 1004.5 |
| 20260507005746 | 15 | 238 | 6.4 | 14.5 | 0.00 | 0.00 | 0.00 | 100 | 1004.5 |
| 20260507005245 | 15 | 233 | 4.8 | 14.5 | 0.00 | 0.00 | 0.00 | 100 | 1004.5 |
| 20260507004744 | 15 | 274 | 6.4 | 16.1 | 0.00 | 0.00 | 0.00 | 100 | 1004.5 |
| 20260507004243 | 15 | 236 | 6.4 | 16.1 | 0.00 | 0.00 | 0.00 | 100 | 1004.4 |
| 20260507003742 | 15 | 240 | 6.4 | 16.1 | 0.00 | 0.00 | 0.00 | 100 | 1004.4 |
| 20260507003241 | 15 | 233 | 6.4 | 16.1 | 0.00 | 0.00 | 0.00 | 100 | 1004.4 |
| 20260507002741 | 15 | 243 | 8.0 | 22.5 | 0.00 | 0.00 | 0.00 | 100 | 1004.4 |
| 20260507002240 | 15 | 214 | 8.0 | 22.5 | 0.00 | 0.00 | 0.00 | 100 | 1004.4 |
| 20260507001739 | 15 | 245 | 9.7 | 19.3 | 0.00 | 0.00 | 0.00 | 100 | 1004.4 |
| 20260507001238 | 15 | 225 | 6.4 | 16.1 | 0.00 | 0.00 | 0.00 | 100 | 1004.4 |
| 20260507000737 | 15 | 216 | 4.8 | 16.1 | 0.00 | 0.00 | 0.00 | 100 | 1004.1 |
| 20260507000236 | 15 | 207 | 8.0 | 16.1 | 0.00 | 0.00 | 0.00 | 100 | 1004.1 |
| 20260506235735 | 15 | 212 | 4.8 | 16.1 | 0.00 | 0.00 | 0.00 | 100 | 1004.1 |
| 20260506235235 | 15 | 241 | 6.4 | 14.5 | 0.00 | 0.00 | 0.00 | 100 | 1004.1 |
| 20260506234734 | 15 | 233 | 6.4 | 17.7 | 0.00 | 0.00 | 0.00 | 100 | 1004.1 |
| 20260506234234 | 15 | 228 | 8.0 | 20.9 | 0.00 | 0.00 | 0.00 | 100 | 1004.1 |
| 20260506233701 | 15 | 210 | 6.4 | 20.9 | 0.00 | 0.00 | 0.00 | 100 | 1004.1 |
| 20260506233201 | 15 | 206 | 11.3 | 20.9 | 0.00 | 0.00 | 0.00 | 100 | 1004.4 |